Location: USNO
(38.9242°N, 77.0663°W)
Time: 07:17:01
(UTC-04:00)

Tiangong 2 - Pass Details

Date: 10 October 2017
Orbit: 388 x 392 km, 42.8° (Epoch: 18 October)

Event Time Altitude Azimuth Distance (km) Brightness Sun altitude
Exits shadow 05:33:39 66° 146° (SE) 429 1.3 -20.1°
Drops below altitude 10° 05:36:46 10° 73° (ENE) 1,422 5.1 -19.5°
Sets 05:38:52 0° 71° (ENE) 2,281 6.5 -19.1°
